EN

Hourly Weather Altofonte

Today, 24 January, Sunday

Time Temperature Precipitation Wind Pressure Humidity
00:00 +5°C° 0.1 mm 7 mps 724 mmHg 90%
01:00 +5°C° 0.1 mm 7 mps 724 mmHg 90%
02:00 +5°C° 0.1 mm 7 mps 723 mmHg 90%
03:00 +6°C° 0.1 mm 7 mps 723 mmHg 91%
04:00 +7°C° 0.1 mm 6 mps 722 mmHg 91%
05:00 +7°C° 0.1 mm 6 mps 722 mmHg 91%
06:00 +7°C° 0.1 mm 6 mps 722 mmHg 92%
07:00 +7°C° 0.1 mm 6 mps 722 mmHg 92%
08:00 +8°C° 0.2 mm 7 mps 722 mmHg 87%
09:00 +9°C° 0.2 mm 8 mps 722 mmHg 82%
10:00 +9°C° 0.2 mm 10 mps 721 mmHg 78%
11:00 +9°C° 0.2 mm 10 mps 720 mmHg 78%
12:00 +9°C° 0.2 mm 11 mps 719 mmHg 79%
13:00 +9°C° 0.2 mm 11 mps 718 mmHg 79%
14:00 +8°C° 1 mm 11 mps 718 mmHg 82%
15:00 +8°C° 1 mm 11 mps 718 mmHg 86%
16:00 +8°C° 1 mm 12 mps 718 mmHg 89%
17:00 +7°C° 0.2 mm 11 mps 718 mmHg 87%
18:00 +7°C° 0.2 mm 10 mps 719 mmHg 86%
19:00 +7°C° 0.2 mm 9 mps 719 mmHg 85%
20:00 +6°C° 0 mm 9 mps 720 mmHg 83%
21:00 +5°C° 0 mm 8 mps 720 mmHg 82%
22:00 +4°C° 0 mm 8 mps 721 mmHg 81%
23:00 +4°C° 0 mm 7 mps 722 mmHg 80%

Tomorrow, 25 January, Monday

Time Temperature Precipitation Wind Pressure Humidity
00:00 +4°C° 0 mm 7 mps 722 mmHg 79%
01:00 +4°C° 0 mm 6 mps 722 mmHg 77%
02:00 +3°C° 0 mm 6 mps 723 mmHg 78%
03:00 +3°C° 0 mm 5 mps 723 mmHg 79%
04:00 +4°C° 0 mm 4 mps 723 mmHg 79%
05:00 +3°C° 0 mm 5 mps 724 mmHg 81%
06:00 +3°C° 0 mm 5 mps 724 mmHg 83%
07:00 +5°C° 0 mm 5 mps 724 mmHg 85%
08:00 +5°C° 0.1 mm 6 mps 725 mmHg 83%
09:00 +6°C° 0.1 mm 7 mps 725 mmHg 81%
10:00 +7°C° 0.1 mm 8 mps 726 mmHg 80%
11:00 +9°C° 0.1 mm 8 mps 726 mmHg 78%
12:00 +8°C° 0.1 mm 9 mps 726 mmHg 76%
13:00 +10°C° 0.1 mm 9 mps 726 mmHg 74%
14:00 +9°C° 0 mm 8 mps 726 mmHg 73%
15:00 +9°C° 0 mm 8 mps 726 mmHg 73%
16:00 +8°C° 0 mm 7 mps 726 mmHg 72%
17:00 +7°C° 0 mm 6 mps 726 mmHg 73%
18:00 +5°C° 0 mm 6 mps 727 mmHg 74%
19:00 +5°C° 0 mm 5 mps 727 mmHg 75%
20:00 +5°C° 0 mm 5 mps 727 mmHg 74%
21:00 +5°C° 0 mm 5 mps 728 mmHg 72%
22:00 +5°C° 0 mm 5 mps 728 mmHg 71%
23:00 +3°C° 0 mm 5 mps 728 mmHg 72%

Day after tomorrow, 26 January, Tuesday

Time Temperature Precipitation Wind Pressure Humidity
00:00 +3°C° 0 mm 5 mps 728 mmHg 73%
01:00 +3°C° 0 mm 5 mps 728 mmHg 74%
02:00 +3°C° 0 mm 5 mps 728 mmHg 74%
03:00 +3°C° 0 mm 5 mps 728 mmHg 74%
04:00 +4°C° 0 mm 4 mps 728 mmHg 74%
05:00 +3°C° 0 mm 5 mps 728 mmHg 75%
06:00 +3°C° 0 mm 5 mps 728 mmHg 75%
07:00 +3°C° 0 mm 5 mps 728 mmHg 75%
08:00 +5°C° 0.1 mm 5 mps 729 mmHg 73%
09:00 +5°C° 0.1 mm 6 mps 729 mmHg 71%
10:00 +6°C° 0.1 mm 7 mps 729 mmHg 68%
11:00 +8°C° 0.2 mm 7 mps 729 mmHg 68%
12:00 +8°C° 0.2 mm 6 mps 729 mmHg 67%
13:00 +8°C° 0.2 mm 6 mps 729 mmHg 67%
14:00 +8°C° 0.4 mm 6 mps 729 mmHg 70%
15:00 +7°C° 0.4 mm 6 mps 729 mmHg 72%
16:00 +7°C° 0.4 mm 6 mps 729 mmHg 75%
17:00 +5°C° 0.3 mm 6 mps 729 mmHg 78%
18:00 +4°C° 0.3 mm 6 mps 729 mmHg 81%
19:00 +4°C° 0.3 mm 6 mps 729 mmHg 84%
20:00 +3°C° 0 mm 5 mps 729 mmHg 84%
21:00 +3°C° 0 mm 5 mps 730 mmHg 84%
22:00 +4°C° 0 mm 4 mps 730 mmHg 84%
23:00 +4°C° 0 mm 4 mps 730 mmHg 83%

27 January, Wednesday

Time Temperature Precipitation Wind Pressure Humidity
00:00 +4°C° 0 mm 3 mps 730 mmHg 82%
01:00 +5°C° 0 mm 2 mps 730 mmHg 81%
02:00 +4°C° 0 mm 2 mps 730 mmHg 80%
03:00 +4°C° 0 mm 2 mps 730 mmHg 80%
04:00 +5°C° 0 mm 1 mps 730 mmHg 79%
05:00 +4°C° 0 mm 2 mps 730 mmHg 79%
06:00 +4°C° 0 mm 2 mps 730 mmHg 79%
07:00 +4°C° 0 mm 2 mps 730 mmHg 79%
08:00 +6°C° 0 mm 2 mps 730 mmHg 77%
09:00 +7°C° 0 mm 2 mps 730 mmHg 76%
10:00 +9°C° 0 mm 2 mps 730 mmHg 75%
11:00 +9°C° 0 mm 3 mps 730 mmHg 74%
12:00 +10°C° 0 mm 4 mps 729 mmHg 74%
13:00 +10°C° 0 mm 4 mps 729 mmHg 74%
14:00 +10°C° 0.1 mm 4 mps 729 mmHg 76%
15:00 +10°C° 0.1 mm 4 mps 728 mmHg 78%
16:00 +10°C° 0.1 mm 4 mps 728 mmHg 80%
17:00 +8°C° 0.1 mm 4 mps 728 mmHg 83%
18:00 +8°C° 0.1 mm 4 mps 727 mmHg 86%
19:00 +8°C° 0.1 mm 3 mps 727 mmHg 90%
20:00 +7°C° 0.2 mm 4 mps 727 mmHg 90%
21:00 +7°C° 0.2 mm 4 mps 727 mmHg 91%
22:00 +7°C° 0.2 mm 5 mps 728 mmHg 92%
23:00 +7°C° 0.1 mm 5 mps 728 mmHg 91%

28 January, Thursday

Time Temperature Precipitation Wind Pressure Humidity
00:00 +7°C° 0.1 mm 5 mps 728 mmHg 90%
01:00 +7°C° 0.1 mm 5 mps 729 mmHg 89%
02:00 +7°C° 0 mm 4 mps 729 mmHg 89%
03:00 +6°C° 0 mm 4 mps 729 mmHg 89%
04:00 +5°C° 0 mm 3 mps 730 mmHg 90%
05:00 +6°C° 0 mm 2 mps 730 mmHg 89%
06:00 +6°C° 0 mm 2 mps 730 mmHg 89%
07:00 +7°C° 0 mm 1 mps 731 mmHg 89%
08:00 +8°C° 0 mm 1 mps 731 mmHg 85%
09:00 +10°C° 0 mm 1 mps 732 mmHg 81%
10:00 +11°C° 0 mm 1 mps 732 mmHg 77%
11:00 +12°C° 0 mm 1 mps 732 mmHg 72%
12:00 +13°C° 0 mm 1 mps 733 mmHg 66%
13:00 +13°C° 0 mm 1 mps 733 mmHg 61%
14:00 +13°C° 0 mm 1 mps 732 mmHg 65%
15:00 +13°C° 0 mm 2 mps 732 mmHg 70%
16:00 +12°C° 0 mm 2 mps 732 mmHg 74%
17:00 +10°C° 0 mm 2 mps 732 mmHg 79%
18:00 +9°C° 0 mm 3 mps 732 mmHg 84%
19:00 +7°C° 0 mm 3 mps 731 mmHg 89%

29 January, Friday

Time Temperature Precipitation Wind Pressure Humidity
Show more